Regional Weather Roundup
Issued by NWS

Home | Current Version | Previous Version | Text Only | Print | Product List | Glossary Off
Versions: 1 2 3 4 5 6 7 8 9 10 11 12 13 14 15 16 17 18 19 20 21 22 23 24 25 26 27 28 29 30 31 32 33 34 35 36 37 38 39 40 41 42 43 44 45 46 47 48 49 50

000
ASUS43 KDMX 231301
RWRIA

WEATHER ROUNDUP FOR IOWA
NATIONAL WEATHER SERVICE DES MOINES IA
700 AM CST FRI FEB 23 2018

NOTE: "FAIR" INDICATES FEW OR NO CLOUDS BELOW 12,000 FEET WITH NO
SIGNIFICANT WEATHER AND/OR OBSTRUCTIONS TO VISIBILITY.

* - THESE STATIONS ARE NOT NWS STATIONS...THUS NOT UNDER NWS
QUALITY CONTROL.  THEY ALSO DO NOT REPORT WEATHER SUCH
AS PRECIPITATION OR FOG.

IAZ001>003-012>014-020>022-031>034-043>046-231400-
   NORTHWEST IOWA

CITY           SKY/WX    TMP DP  RH WIND       PRES   REMARKS
CARROLL *      CLOUDY    21  19  93 W7        30.18R WCI  13
CHEROKEE *     CLOUDY    15  15  99 W5        30.18R FOG     WCI   7
DENISON *      PTCLDY    19  19 100 W7        30.20S FOG     WCI  10
LE MARS *      CLOUDY    18  16  93 W7        30.20R WCI   8
ORANGE CITY *  CLOUDY    19  19 100 NW15      30.17R FOG     WCI   5
SHELDON *      CLOUDY    19  19 100 W12       30.15R FOG     WCI   7
SIOUX CITY     CLOUDY    17  15  92 NW10      30.21R WCI   5
SPENCER        CLOUDY    21  18  88 NW14      30.15R WCI   8
STORM LAKE *   CLOUDY    14  14 100 NW6       30.16R FOG     WCI   5
$$

IAZ055>058-069>071-079>083-090>094-231400-
   SOUTHWEST IOWA

CITY           SKY/WX    TMP DP  RH WIND       PRES   REMARKS
ATLANTIC *     CLEAR     25  25 100 W6        30.21R WCI  18
AUDUBON *      CLEAR     23  19  86 CALM      30.19R
CLARINDA *     PTCLDY    28  28 100 W9        30.26R WCI  20
COUNCIL BLFS * CLEAR     23  23 100 NW7       30.21R FOG     WCI  15
CRESTON *      CLOUDY    27  25  93 NW9       30.21R WCI  17
HARLAN  *      CLOUDY    19  19 100 W7        30.23S WCI  10
LAMONI         CLOUDY    31  29  92 NW9       30.19S WCI  23
RED OAK *      CLOUDY    23  23 100 W5        30.22S WCI  17
SHENANDOAH *   CLOUDY    25  25 100 W3        30.25R
$$

IAZ047>049-059>061-072>074-084-231400-
   CENTRAL IOWA

CITY           SKY/WX    TMP DP  RH WIND       PRES   REMARKS
AMES           PTCLDY    29  24  82 NW8       30.18R WCI  21
ANKENY *       MOCLDY    30  25  80 W14       30.20R WCI  20
BOONE *        MOCLDY    27  25  93 MISG      30.17R FOG
CHARITON *     CLOUDY    32  32 100 NW10      30.19R WCI  24
DES MOINES     CLOUDY    31  25  78 W13       30.19R WCI  21
GRINNELL*      CLOUDY    32  32 100 W14       30.17R WCI  22
KNOXVILLE *    CLOUDY    32  30  93 W13       30.17R WCI  22
MARSHALLTOWN   CLOUDY    31  28  89 W18       30.15R WCI  19
NEWTON *       CLOUDY    32  30  93 W16       30.17R WCI  21
PELLA *        CLOUDY    32  32  99 W8        30.19R WCI  25
PERRY *        FAIR      28  26  91 W10       30.20R WCI  18
$$

IAZ004>006-015-016-023>025-035-036-231400-
   NORTH CENTRAL IOWA

CITY           SKY/WX    TMP DP  RH WIND       PRES   REMARKS
CLARION *      PTCLDY    23  23 100 W12       30.15R FOG     WCI  12
ESTHERVILLE    CLEAR     18  15  88 W13       30.12R WCI   5
FORT DODGE *   CLEAR     22  19  89 W7        30.17R WCI  13
MASON CITY     PTCLDY    25  21  85 W15       30.13R WCI  13
FOREST CITY *  CLOUDY    27  27 100 W8        30.12R WCI  18
WEBSTER CITY * PTCLDY    25  21  86 W13       30.15R WCI  13
IOWA FALLS *   FAIR      28  26  91 W13       30.15S WCI  17
$$

IAZ007>011-017>019-026>030-037>042-050>054-066-231400-
   NORTHEAST IOWA

CITY           SKY/WX    TMP DP  RH WIND       PRES   REMARKS
CEDAR RAPIDS   CLOUDY    34  32  92 W15       30.13R WCI  24
CHARLES CITY * CLOUDY    30  30 100 W16       30.11R WCI  19
CLINTON *      CLOUDY    36  35  96 W14       30.13R WCI  27
DECORAH *      CLOUDY    32  32 100 W12G22    30.06S WCI  23
DUBUQUE        CLOUDY    33  31  92 W15       30.09R WCI  23
MONTICELLO *   CLOUDY    34  34 100 W15       30.11R WCI  24
OELWEIN *      CLOUDY    32  32 100 W20       30.11R WCI  20
WATERLOO       CLOUDY    32  29  88 W18G25    30.13R WCI  20
$$

IAZ064-065-067-068-078-231400-
   EAST CENTRAL IOWA

CITY           SKY/WX    TMP DP  RH WIND       PRES   REMARKS
DAVENPORT      CLOUDY    37  33  85 W17G23    30.15R WCI  27
IOWA CITY      CLOUDY    35  31  85 W12       30.16R WCI  27
MT. PLEASANT * CLOUDY    34  34 100 W14G22    30.18R WCI  24
MUSCATINE *    CLOUDY    36  32  87 W17       30.17R WCI  25
QUAD CITIES    CLOUDY    38  36  92 W20       30.13R WCI  28
$$

IAZ062-063-075>077-085>089-095>099-231400-
   SOUTHEAST IOWA

CITY           SKY/WX    TMP DP  RH WIND       PRES   REMARKS
BURLINGTON     CLOUDY    36  34  92 W10       30.17R WCI  28
FAIRFIELD *    CLOUDY    34  32  93 W14       30.17R WCI  24
KEOKUK *       CLOUDY    36  34  93 W12       30.19R WCI  27
OSKALOOSA *    CLOUDY    32  32 100 NW12      30.18R WCI  23
OTTUMWA        CLOUDY    34  33  96 W12G22    30.18R WCI  25
WASHINGTON *   CLOUDY    34  34 100 W16       30.18R WCI  23
$$

ABBREVIATIONS USED IN REMARKS
   TC - TEMPERATURES IN CELSIUS
  WCI - WIND CHILL INDEX
   HX - HEAT INDEX
  VSB - VISIBILITY
$$





USA.gov is the U.S. government's official web portal to all federal, state and local government web resources and services.